This is the latest recevied weather packets stored in our database for station/object HS6PNA-2. If no packets are shown the sender has not sent any weather packets the latest 10 day(s).
| Time | Temp. | Humidity | Pressure | Rain* | Wind** | Luminosity | Snow |
|---|---|---|---|---|---|---|---|
| 1777719658 | 30° C | 29% | 999 hPa | - | - | 0 W/m² | - |
| 1777718734 | 30° C | 29% | 1000 hPa | - | - | 0 W/m² | - |
| 1777717809 | 31.67° C | 31% | 999 hPa | - | - | 0 W/m² | - |
| 1777716885 | 33.89° C | 37% | 1000 hPa | - | - | 0 W/m² | - |
| 1777715960 | 37.78° C | 37% | 999 hPa | - | - | 0 W/m² | - |
| 1777715035 | 37.22° C | 37% | 999 hPa | - | - | 0 W/m² | - |
| 1777714111 | 37.22° C | 37% | 999 hPa | - | - | 0 W/m² | - |
| 1777713186 | 36.67° C | 36% | 999 hPa | - | - | 0 W/m² | - |
| 1777712262 | 36.11° C | 37% | 1000 hPa | - | - | 0 W/m² | - |
| 1777711337 | 35.56° C | 36% | 1000 hPa | - | - | 0 W/m² | - |
| 1777710413 | 35° C | 37% | 1000 hPa | - | - | 0 W/m² | - |
| 1777709488 | 31.67° C | 37% | 1000 hPa | - | - | 0 W/m² | - |
| 1777708564 | 30.56° C | 34% | 1000 hPa | - | - | 0 W/m² | - |
| 1777707640 | 30.56° C | 33% | 1001 hPa | - | - | 0 W/m² | - |
| 1777706715 | 30.56° C | 33% | 1001 hPa | - | - | 0 W/m² | - |
| 1777705791 | 30.56° C | 34% | 1002 hPa | - | - | 0 W/m² | - |
| 1777704866 | 30.56° C | 34% | 1002 hPa | - | - | 0 W/m² | - |
| 1777703942 | 30.56° C | 36% | 1002 hPa | - | - | 0 W/m² | - |
| 1777703017 | 30.56° C | 36% | 1002 hPa | - | - | 0 W/m² | - |
| 1777702093 | 30.56° C | 37% | 1003 hPa | - | - | 0 W/m² | - |
| 1777701168 | 30° C | 38% | 1003 hPa | - | - | 0 W/m² | - |
| 1777700244 | 30° C | 37% | 1003 hPa | - | - | 0 W/m² | - |
| 1777699319 | 30° C | 36% | 1004 hPa | - | - | 0 W/m² | - |
| 1777698395 | 30° C | 36% | 1004 hPa | - | - | 0 W/m² | - |
| 1777697470 | 30° C | 36% | 1004 hPa | - | - | 0 W/m² | - |
* Rain since midnight (hover to see other rain measurements)
** Current wind speed in m/s (hover to see current wind gust speed)